Flag for Norway Weather past 2 weeks in Orkanger/Fannrem, Norway

Now
39 °F

Chilly.


Feels Like: 39 °F
Forecast: 28 / 50 °F
Wind: 2 mph from South

Location: Vinjeora Ii

Current Time: Apr 26, 2015 at 3:46:18 AM

Latest Report: Apr 26, 2015 at 3:00 AM


Visibility: N/A

Pressure: 29.21 "Hg

Humidity: 61%

Dew point: 27 °F

Location of Orkanger/FannremLocation

Historic Weather in Orkanger/Fannrem — Graph

°F

Orkanger/Fannrem temperature yesterday

Maximum temperature yesterday: 46 °F (at 1:00 PM)
Minimum temperature yesterday: 35 °F (at 4:00 AM)
Average temperature yesterday: 40 °F

Past Weeks' High & Low Weather Summary

 TemperatureHumidityPressure
High60 °F (Apr 11, 2:00 PM)93% (Apr 24, 3:00 AM)30.52 "Hg (Apr 24, 3:00 AM)
Low30 °F (Apr 24, 7:00 AM)24% (Apr 11, 2:00 PM)29.12 "Hg (Apr 25, 7:00 PM)
Average41 °F70%29.94 "Hg
* Reported Apr 11 2:00 AM — Apr 26 2:00 AM, Orkanger/Fannrem, Weather by CustomWeather, © 2015

Note: Actual official high and low records may vary slightly from our data, if they occured in-between our weather recording intervals... More about our weather records

Advertising

Orkanger/Fannrem weather history for previous 24 hours

 ConditionsComfort  
Time TempWeatherWind HumidityBarometerVisibility
2:00 AM
Sun, Apr 26
39 °FChilly.3 mph76%29.21 "HgN/A
1:00 AM37 °FChilly.1 mph85%29.21 "HgN/A
12:00 AM41 °FQuite cool.2 mph89%29.18 "HgN/A
10:00 PM
Sat, Apr 25
41 °FQuite cool.3 mph89%29.15 "HgN/A
9:00 PM41 °FQuite cool.1 mph88%29.15 "HgN/A
8:00 PM41 °FQuite cool.1 mph85%29.12 "HgN/A
7:00 PM42 °FQuite cool.2 mph81%29.12 "HgN/A
6:00 PM44 °FQuite cool.2 mph78%29.15 "HgN/A
5:00 PM44 °FQuite cool.2 mph75%29.21 "HgN/A
4:00 PM44 °FQuite cool.3 mph71%29.23 "HgN/A
3:00 PM45 °FCool.3 mph70%29.26 "HgN/A
2:00 PM45 °FCool.3 mph68%29.29 "HgN/A
1:00 PM46 °FCool.2 mph67%29.32 "HgN/A
12:00 PM44 °FQuite cool.1 mph68%29.35 "HgN/A
11:00 AM42 °FQuite cool.1 mph74%29.38 "HgN/A
10:00 AM40 °FChilly.1 mph75%29.41 "HgN/A
9:00 AM39 °FChilly.1 mph78%29.41 "HgN/A
8:00 AM37 °FChilly.1 mph84%29.44 "HgN/A
7:00 AM35 °FChilly.2 mph86%29.44 "HgN/A
6:00 AM35 °FChilly.1 mph86%29.47 "HgN/A
5:00 AM35 °FChilly.1 mph86%29.50 "HgN/A
4:00 AM35 °FChilly.1 mph83%29.50 "HgN/A
3:00 AM35 °FChilly.2 mph77%29.54 "HgN/A
Weather by CustomWeather, © 2015

See weather overviewHow to use our weather pages